Cosmos 1624 Rocket - Orbit

View from above orbital plane
View from above orbital plane
View from above satellite
View from above satellite

Ground track
Ground track

The orbit data is extracted from the following two-line orbital elements,

1 15483U 85006B   13138.85418133  .00000202  00000-0  79045-4 0  9374
2 15483 074.0457 209.4164 0019014 201.3226 277.4768 14.35614107482633
Epoch (UTC): 18 May 2013 20:30:01
Eccentricity: 0.0019014
inclination: 74.0457°
perigee height: 759 km
apogee height: 786 km
right ascension of ascending node: 209.4164°
argument of perigee: 201.3226°
revolutions per day: 14.35614107
mean anomaly at epoch: 277.4768°
orbit number at epoch: 48263

The dashed part of the orbit path shows where the satellite is in the earth's shadow,  

Developed and maintained by Chris Peat, Heavens-Above GmbH. Please read the updated FAQ before sending e-mail. Imprint. DLR